Flag for Comoros Weather past 2 weeks in Mutsamudu, Comoros

Now
77 °F

Passing clouds.


Feels Like: 78 °F
Forecast: 74 / 77 °F
Wind: 1 mph from North

Location: Dzaoudzi / Pamanzi Mayotte

Current Time: Aug 29, 2014 at 9:36:26 PM

Latest Report: Aug 29, 2014 at 9:00 PM


Visibility: N/A

Pressure: 30.01 "Hg

Humidity: 89%

Dew point: 73 °F

Location of MutsamuduLocation

Historic Weather in Mutsamudu — Graph

°F

Mutsamudu temperature yesterday

Maximum temperature yesterday: 84 °F (at 11:30 AM)
Minimum temperature yesterday: 75 °F (at 3:00 AM)
Average temperature yesterday: 79 °F

Past Weeks' High & Low Weather Summary

 TemperatureHumidityPressure
High86 °F (Aug 23, 11:30 AM)94% (Aug 15, 2:30 AM)30.12 "Hg (Aug 15, 2:30 AM)
Low70 °F (Aug 15, 2:00 AM)51% (Aug 17, 11:30 AM)29.86 "Hg (Aug 23, 4:30 AM)
Average78 °F74%29.99 "Hg
* Reported Aug 14 8:00 PM — Aug 29 8:30 PM, Mutsamudu, Weather by CustomWeather, © 2014

Note: Actual official high and low records may vary slightly from our data, if they occured in-between our weather recording intervals... More about our weather records

Advertising

Mutsamudu weather history for previous 24 hours

 ConditionsComfort  
Time TempWeatherWind HumidityBarometerVisibility
8:30 PM
Aug 29
77 °FPassing clouds.2 mph89%30.01 "HgN/A
8:00 PM77 °FMostly cloudy.2 mph89%29.98 "HgN/A
7:30 PM77 °FPassing clouds.2 mph83%29.98 "HgN/A
7:00 PM77 °FPassing clouds.2 mph83%29.98 "HgN/A
6:30 PM79 °FMostly cloudy.3 mph84%29.98 "HgN/A
6:00 PM79 °FPassing clouds.5 mph84%29.95 "HgN/A
5:30 PM79 °FScattered showers. Partly sunny.7 mph84%29.95 "HgN/A
5:00 PM79 °FScattered showers. Partly sunny.8 mph84%29.95 "Hg5 mi
4:30 PM81 °FScattered showers. Partly sunny.10 mph79%29.95 "Hg6 mi
4:00 PM82 °FPartly sunny.7 mph74%29.95 "HgN/A
3:30 PM82 °FPartly sunny.8 mph74%29.92 "HgN/A
3:00 PM84 °FScattered clouds.8 mph70%29.92 "HgN/A
2:30 PM84 °FScattered clouds.10 mph70%29.92 "HgN/A
2:00 PM84 °FScattered clouds.10 mph70%29.95 "HgN/A
1:30 PM84 °FPartly sunny.12 mph70%29.95 "HgN/A
1:00 PM84 °FPartly sunny.8 mph74%29.95 "HgN/A
12:30 PM84 °FPartly sunny.10 mph70%29.95 "HgN/A
12:00 PM84 °FPartly sunny.10 mph70%29.98 "HgN/A
11:30 AM86 °FPartly sunny.9 mph66%29.98 "HgN/A
11:00 AM84 °FPartly sunny.10 mph70%29.98 "HgN/A
10:39 AM86 °FScattered clouds.10 mph66%30.01 "HgN/A
10:00 AM86 °FScattered clouds.8 mph70%30.01 "HgN/A
9:30 AM84 °FPassing clouds.8 mph74%30.01 "HgN/A
9:00 AM84 °FPassing clouds.8 mph70%29.98 "HgN/A
8:30 AM84 °FPassing clouds.8 mph70%29.98 "HgN/A
8:00 AM82 °FPassing clouds.7 mph74%29.98 "HgN/A
7:30 AM81 °FPassing clouds.5 mph79%29.98 "HgN/A
7:04 AM79 °FPassing clouds.2 mph84%29.95 "HgN/A
6:30 AM75 °FScattered clouds.2 mph94%29.95 "HgN/A
6:00 AM73 °FPassing clouds.3 mph94%29.95 "HgN/A
5:30 AM73 °FPassing clouds.2 mph94%29.95 "HgN/A
5:00 AM73 °FPassing clouds.No wind94%29.92 "HgN/A
4:30 AM75 °FPassing clouds.2 mph89%29.92 "HgN/A
4:00 AM73 °FMild.No wind89%29.92 "HgN/A
3:30 AM73 °FPartly cloudy.No wind94%29.92 "HgN/A
3:00 AM73 °FMild.No wind89%29.92 "HgN/A
2:30 AM73 °FMild.No wind94%29.92 "HgN/A
2:00 AM75 °FMild.No wind89%29.92 "HgN/A
1:30 AM75 °FMild.No wind83%29.92 "HgN/A
1:00 AM75 °FMild.1 mph89%29.95 "HgN/A
12:30 AM75 °FMild.3 mph89%29.95 "HgN/A
12:00 AM75 °FMild.3 mph89%29.95 "HgN/A
11:30 PM
Aug 28
75 °FMild.3 mph89%29.98 "HgN/A
11:00 PM77 °FWarm.2 mph83%29.98 "HgN/A
10:30 PM77 °FWarm.3 mph83%29.98 "HgN/A
10:00 PM77 °FWarm.2 mph83%29.98 "HgN/A
9:30 PM77 °FWarm.3 mph83%29.98 "HgN/A
9:00 PM77 °FWarm.3 mph83%29.98 "HgN/A
Weather by CustomWeather, © 2014

See weather overviewHow to use our weather pages